Wind_Speed
11 9 5 4 3 3 5 8 8 8 7 9 11 15 18 22 22 21 20 21 21 20 20 21 21 22 23 23 24 17 24 16 10 12 21 25 25 29 22 16 14 13 13
14 12 7 7 5 6 8 9 8 7 7 10 11 14 17 19 21 23 23 21 24 25 21 21 21 20 20 21 20 20 18 17 19 17 18 19 21 23 21 18 14 11 10
14 12 11 9 7 6 7 9 7 7 8 9 11 15 17 19 22 23 23 23 23 19 21 22 23 23 23 23 20 20 19 21 20 20 14 18 16 21 19 17 14 13 11
19 15 14 10 8 8 10 12 12 10 9 9 10 12 15 17 21 22 26 24 20 19 20 24 28 27 27 26 24 23 20 18 16 15 13 14 15 19 19 17 13 11 11
22 17 15 10 10 10 10 10 9 8 13 13 11 9 8 12 18 25 27 22 19 21 23 28 27 25 26 23 19 16 15 11 10 12 12 11 13 15 16 17 13 8 10
25 20 17 12 11 10 10 11 12 13 15 13 14 12 10 11 15 17 23 24 22 22 24 26 22 24 24 18 10 5 6 12 18 17 13 16 14 14 15 17 12 7 3
29 23 20 16 11 8 13 14 17 18 17 13 16 15 14 13 13 19 18 19 22 20 26 29 30 26 19 10 6 7 11 20 20 21 20 20 15 16 14 12 11 10 12
31 26 22 19 14 14 15 17 20 18 17 17 16 16 14 14 14 17 17 19 22 23 28 33 30 24 17 8 3 5 14 18 18 16 13 13 10 8 14 12 10 11 8
30 30 25 23 19 17 16 18 20 18 19 18 17 16 13 15 17 16 16 16 19 23 28 30 29 20 14 9 13 16 19 16 12 12 14 8 5 5 4 7 9 8 3
31 33 29 26 23 20 17 19 21 18 18 19 18 16 14 14 14 14 15 19 19 21 25 27 21 15 14 13 15 16 17 16 16 16 13 10 7 5 4 5 7 8 8
34 33 32 29 27 23 21 21 21 19 18 17 17 18 17 15 17 15 17 20 23 23 22 21 18 15 14 13 12 15 14 13 13 12 11 10 9 9 8 7 7 6 11
34 34 34 32 30 27 25 25 22 20 20 18 17 18 18 17 16 16 17 16 18 20 21 21 19 17 15 12 14 13 13 13 12 10 10 10 10 11 12 12 10 10 12
35 33 36 35 33 32 29 28 25 23 22 20 21 19 18 19 19 17 16 19 19 19 20 19 19 18 16 13 16 17 15 14 14 16 20 19 18 18 15 16 16 16 18
34 35 36 36 35 35 33 32 29 26 24 21 21 25 21 19 19 21 20 17 19 19 16 18 18 18 18 17 16 14 13 12 13 18 19 18 16 15 14 16 18 18 18
33 34 34 35 37 35 35 36 35 31 30 26 25 28 26 23 22 22 25 21 23 21 18 20 21 21 22 19 14 12 12 13 20 20 20 19 19 18 17 13 16 14 13
30 30 31 30 31 30 30 29 32 32 30 30 24 25 26 21 20 22 25 24 20 22 25 27 28 27 25 21 17 15 15 20 23 22 22 21 20 18 18 17 14 15 17
31 29 31 30 30 29 27 26 25 30 29 27 28 25 27 24 23 23 25 28 23 22 29 29 29 28 25 22 20 20 22 24 24 24 20 17 18 19 23 20 16 15 16
34 36 33 31 30 29 29 29 27 27 26 30 30 31 27 27 26 27 27 31 28 28 31 31 28 26 24 23 23 24 26 26 24 22 22 24 25 25 21 20 18 16 14
34 34 34 32 33 33 31 28 29 27 26 29 29 31 34 27 25 31 34 39 38 36 35 32 31 28 27 29 31 31 33 33 31 29 30 28 28 25 22 20 16 16 13
35 35 35 31 29 31 29 28 26 26 27 27 31 33 31 30 25 29 37 40 37 35 39 41 37 32 32 35 37 37 40 38 35 35 32 30 27 22 22 19 17 15 11
31 33 36 30 30 31 30 29 28 28 27 28 34 37 37 36 35 31 37 44 45 43 44 44 41 32 31 34 37 42 42 40 38 34 32 32 28 27 22 17 15 12 10
31 31 37 32 30 30 30 30 30 29 29 28 30 36 39 40 40 40 38 42 47 43 43 42 38 39 40 41 41 46 45 42 39 36 34 29 27 27 21 18 14 12 9
30 30 34 30 30 31 33 30 30 30 28 33 32 36 37 41 36 40 42 42 42 45 44 39 41 45 42 42 43 45 44 44 41 39 37 34 28 22 20 18 15 11 6
31 32 31 31 27 30 29 31 30 32 33 33 36 36 41 42 42 44 43 43 43 43 43 41 44 43 37 36 35 34 32 35 38 37 33 31 23 22 19 17 14 10 10
32 30 29 29 29 31 28 31 32 35 36 35 33 34 38 42 44 41 40 39 39 42 41 41 39 39 38 39 40 37 31 27 28 27 24 22 21 20 19 17 14 12 10
25 33 33 31 31 30 28 30 30 35 36 38 38 40 41 40 40 39 38 38 39 39 41 39 37 38 40 39 37 37 41 36 30 24 24 22 20 23 21 17 15 11 10
Wind_Direction
177 176 148 123 78 106 93 121 122 107 111 135 139 144 154 161 166 166 162 165 170 164 163 168 167 169 163 156 160 149 138 149 125 113 139 160 160 169 180 188 191 200 209
165 162 150 127 108 123 104 121 137 121 120 129 134 136 145 152 161 161 157 161 158 152 153 159 160 164 156 157 159 146 149 144 132 131 140 158 170 183 187 195 198 213 223
168 155 158 136 131 126 117 109 120 130 120 117 139 138 143 155 160 159 151 148 145 149 151 157 158 155 149 149 150 144 143 142 141 135 148 175 189 194 200 212 230 231 228
172 162 161 152 136 142 127 113 110 120 120 108 121 139 150 154 164 160 152 145 138 139 142 149 154 152 146 139 127 136 141 138 144 153 154 165 175 189 205 203 204 220 230
173 166 165 164 148 151 143 136 117 140 116 135 127 123 122 123 136 152 162 151 140 141 144 149 148 142 144 138 133 127 136 149 173 178 165 165 169 175 194 197 212 218 242
176 172 165 164 164 158 163 141 128 130 145 131 142 141 130 146 157 143 153 156 146 142 146 148 145 142 137 135 131 161 199 206 191 184 171 180 185 192 199 208 214 231 271
177 173 170 169 174 171 162 157 139 135 140 132 139 146 139 136 152 169 170 157 159 153 150 152 150 149 153 173 193 239 209 197 190 188 194 199 198 205 209 215 214 233 250
176 176 176 173 173 156 151 151 147 140 137 135 141 152 150 149 139 152 158 158 166 165 164 166 163 173 182 191 188 147 174 189 196 197 190 184 200 224 227 236 238 247 251
175 179 180 179 177 168 157 156 156 145 147 144 141 143 146 157 163 153 156 154 156 166 173 176 182 181 188 183 157 138 144 152 169 204 215 197 165 184 215 235 206 172 154
178 183 182 184 182 179 172 157 163 156 150 157 155 151 145 141 149 161 170 164 155 158 171 170 176 191 183 174 176 166 155 155 155 148 144 145 163 166 182 211 184 168 153
186 186 186 187 185 184 179 170 161 165 159 159 162 160 158 156 156 158 156 153 151 157 171 186 186 185 182 181 191 188 177 160 149 138 144 145 138 140 140 130 124 109 114
186 188 190 189 190 188 185 181 176 169 172 173 172 174 175 172 170 166 173 169 167 169 173 175 179 185 188 191 191 179 163 153 154 157 156 143 147 137 129 114 104 105 91
186 188 194 193 193 192 189 186 183 183 182 181 190 185 184 190 189 187 184 186 184 183 185 187 188 191 189 175 171 162 158 166 167 150 137 133 130 127 124 117 118 114 98
185 188 192 192 192 194 193 191 191 192 193 192 193 196 193 193 197 197 197 198 200 202 202 197 194 192 189 185 173 167 174 180 178 155 144 140 137 137 140 140 136 121 97
186 187 186 188 191 190 194 193 195 201 202 200 201 198 197 201 208 207 203 202 201 204 203 196 190 190 191 188 181 186 188 180 166 159 155 150 152 151 133 130 129 125 107
182 182 181 182 184 188 189 196 205 210 208 212 213 212 211 225 217 212 208 206 204 204 192 187 190 193 194 190 185 183 180 175 170 171 165 162 150 141 134 134 125 113 106
183 181 180 181 182 182 188 192 197 211 213 214 216 218 222 228 224 219 210 205 207 206 198 197 197 199 201 200 200 199 180 175 178 173 166 156 152 153 146 138 127 119 100
188 190 182 183 184 185 188 194 195 198 203 211 216 218 222 226 230 224 214 203 197 203 206 206 206 207 208 211 213 204 184 181 180 176 172 168 166 156 146 140 135 122 116
190 186 186 185 187 189 190 192 196 199 202 212 216 219 223 225 230 228 215 204 204 207 212 217 219 217 219 218 213 207 196 187 184 178 173 172 169 161 147 142 137 135 131
193 193 187 184 185 187 189 190 194 199 204 206 214 219 217 216 221 216 208 205 209 210 213 217 218 219 217 216 213 204 191 186 182 179 177 171 166 158 150 149 152 147 141
193 193 189 184 187 190 191 195 197 199 203 208 215 221 220 219 221 223 218 212 215 215 217 220 220 218 221 218 209 198 191 187 183 181 175 169 161 153 153 161 151 144 145
189 191 188 189 191 194 197 199 200 201 204 208 214 223 225 222 224 225 226 224 220 221 225 225 217 215 218 217 209 197 190 185 182 177 169 165 165 153 153 162 151 150 147
189 190 193 197 197 197 198 198 200 203 204 211 211 219 222 224 222 227 228 229 225 223 223 222 219 218 214 211 208 199 191 187 183 176 168 161 165 159 161 161 155 152 155
193 193 195 197 196 199 198 202 203 207 207 212 214 214 221 225 223 229 230 232 228 224 221 217 218 219 213 206 198 191 190 184 177 172 166 154 156 169 172 162 159 156 152
198 192 193 193 197 201 204 207 208 213 214 214 215 216 221 224 226 226 228 225 222 218 209 210 210 206 203 195 187 185 176 170 169 161 153 153 159 176 174 166 160 154 146
201 210 206 203 202 205 206 211 213 219 219 222 227 227 229 226 223 221 218 216 211 208 206 205 199 195 188 181 174 167 156 160 160 162 167 165 174 173 170 165 160 160 151
Height
740 742 743 743 743 742 742 742 742 741 740 740 740 741 743 745 748 752 755 758 762 765 768 770 774 777 781 786 790 792 795 796 800 808 812 818 822 827 834 838 841 844 847
740 742 744 744 744 744 744 744 744 744 743 742 744 744 746 748 751 754 756 760 763 767 770 773 775 779 783 787 791 794 798 800 802 807 814 819 825 830 835 839 841 843 846
740 742 744 745 745 746 746 746 746 746 746 746 747 748 749 751 753 757 760 764 766 769 772 775 778 782 786 791 794 796 799 802 805 810 817 823 827 831 835 838 840 842 844
739 742 744 746 746 748 748 749 749 749 750 750 750 751 753 753 755 759 763 766 769 773 776 779 782 786 789 793 797 800 802 806 809 814 820 823 826 830 835 837 840 841 842
738 742 744 746 748 749 750 751 752 752 753 752 752 754 756 757 759 762 765 769 772 776 779 783 786 790 793 796 799 802 806 809 812 817 820 823 825 830 833 838 841 840 842
737 741 744 746 748 750 751 752 753 753 755 756 756 757 758 758 760 765 769 772 776 779 782 786 790 794 797 800 803 807 809 811 814 817 820 825 828 831 835 838 838 840 840
735 739 743 746 749 750 752 754 755 756 757 758 760 760 761 763 764 767 771 774 778 781 785 788 792 797 800 803 806 807 808 811 814 817 821 824 827 829 834 835 834 837 838
732 737 741 745 749 751 753 755 758 759 760 761 762 764 765 767 769 770 773 773 778 783 786 791 794 798 803 806 807 807 809 813 817 820 822 824 825 828 832 832 833 837 839
729 734 739 743 747 751 753 755 758 761 763 764 765 766 768 769 772 774 776 779 782 784 788 792 797 801 805 808 810 811 812 815 818 820 822 824 824 831 828 829 834 839 841
725 730 735 740 745 749 753 755 758 762 764 767 769 770 771 772 774 776 778 781 784 787 792 795 799 801 804 807 810 812 813 817 820 821 822 823 827 828 829 835 835 835 836
721 727 732 737 742 747 751 756 759 762 765 768 770 772 774 775 778 779 781 783 785 789 792 796 798 801 804 807 810 813 815 817 819 819 822 825 829 831 832 832 834 832 832
717 723 729 734 740 744 749 753 758 761 764 767 770 772 775 777 779 782 784 786 788 790 793 796 799 803 806 808 811 813 815 816 818 820 822 825 826 829 833 832 831 835 833
713 719 725 731 736 740 745 750 754 758 762 765 769 771 774 776 779 782 784 787 790 793 795 798 800 803 807 809 811 814 815 817 818 820 822 824 827 829 832 834 835 834 834
709 715 721 727 732 737 742 746 750 754 758 762 765 768 771 774 777 780 783 785 788 791 794 798 801 804 806 808 810 812 814 815 816 817 821 824 827 829 834 835 836 836 836
705 711 716 722 727 733 737 741 745 749 752 755 759 763 767 770 772 776 779 782 786 789 792 795 797 801 804 805 808 810 812 814 815 818 822 825 828 832 832 835 834 836 839
699 705 711 717 723 728 733 738 742 746 749 754 757 760 763 767 770 772 777 781 784 787 789 791 794 796 798 801 804 807 809 812 814 819 822 825 825 826 830 836 837 836 838
692 699 706 711 718 723 729 734 738 743 747 750 754 757 760 762 766 769 773 778 781 784 785 787 789 792 795 798 800 802 804 809 813 816 818 818 823 829 830 832 835 838 838
686 691 698 705 711 717 722 727 731 736 740 744 747 751 755 758 762 765 769 774 778 779 779 781 784 787 790 793 795 798 803 806 809 811 814 819 824 826 830 831 832 834 836
681 686 691 698 703 709 715 721 726 730 734 737 742 745 749 753 755 759 763 765 768 771 775 778 780 783 786 787 790 793 797 801 805 809 814 817 821 823 825 829 832 834 836
674 679 685 692 698 704 709 714 719 724 728 731 734 738 743 747 748 749 754 759 761 764 768 771 775 779 781 784 786 789 793 798 801 805 809 812 815 818 824 828 831 832 835
669 675 680 687 692 696 701 706 711 716 720 723 726 729 734 737 740 742 744 748 750 753 756 761 766 771 776 777 778 783 787 791 796 800 804 807 811 813 819 828 828 830 832
662 668 674 678 685 691 694 698 703 707 711 715 719 722 726 729 732 734 736 738 742 746 749 753 758 761 761 766 769 774 778 783 789 794 800 808 812 809 818 825 826 828 831
656 661 667 673 677 681 686 690 694 698 703 706 710 713 717 720 723 725 726 729 733 737 740 746 749 751 752 755 762 768 774 778 783 789 794 797 809 814 817 820 823 826 830
648 654 659 665 671 674 678 682 686 690 694 697 700 702 706 710 713 714 717 720 724 727 732 737 738 744 751 757 765 770 775 778 784 790 796 797 807 815 816 818 821 824 826
643 648 653 658 663 667 671 675 678 681 684 687 691 693 695 699 702 705 707 712 716 720 725 728 732 737 744 751 756 763 771 788 793 796 800 802 806 814 816 818 819 823 824
640 644 647 651 655 659 663 667 669 672 675 678 681 684 686 688 693 697 700 705 708 713 718 723 728 733 739 747 755 761 765 780 789 795 800 803 807 810 813 815 817 821 822